Weather History for KIRK - January, 2012

Change the Weather History Date:

Friday, January 27, 2012

  Actual Average Record
Temperature  
Mean Temperature 29 °F 26 °F  
Max Temperature 39 °F 36 °F 64 °F (2002)
Min Temperature 18 °F 17 °F -17 °F (1936)
Degree Days  
Heating Degree Days 36 39  
Month to date heating degree days 929 1053  
Since 1 July heating degree days 2961 3396  
Cooling Degree Days 0 0  
Month to date cooling degree days 0 0  
Year to date cooling degree days 0 0  
Moisture  
Dew Point 28 °F    
Average Humidity 75    
Maximum Humidity 96    
Minimum Humidity 54    
Precipitation  
Precipitation 0.37 in 0.06 in 0.95 in (1949)
Month to date precipitation 0.65 1.02  
Year to date precipitation 0.65 1.02  
Sea Level Pressure  
Sea Level Pressure 30.00 in    
Wind  
Wind Speed 5 mph (WSW)    
Max Wind Speed 17 mph    
Max Gust Speed 25 mph    
Visibility 5 miles    
Events Fog , Snow    
T = Trace of Precipitation, MM = Missing Value Source: NWS Daily Summary

Daily Weather History Graph

Daily Weather History Graph

Search for Another Location

Airport or City:

Trip Planner

Search our weather history database for the weather conditions in past years. The results will help you decide how hot, cold, wet, or windy it might be!

Date:

Astronomy

Jan. 27, 2012 Rise Set
Actual Time 7:23 AM CST 5:22 PM CST
Civil Twilight 6:54 AM CST 5:51 PM CST
Nautical Twilight 6:21 AM CST 6:24 PM CST
Astronomical Twilight 5:49 AM CST 6:56 PM CST
Moon 9:18 AM CST (1/27) 10:14 PM CST (1/27)
Length of Visible Light 10h 57m
Length of Day
9h 58m
Waxing Crescent, 20% of the Moon is Illuminated
Jan 27
Waxing Crescent
Jan 30
First Quarter
Feb 7
Full
Feb 14
Last Quarter
Feb 21
New

Hourly Weather History & Observations

Time (CST) Temp. Windchill Dew Point Humidity Pressure Visibility Wind Dir Wind Speed Gust Speed Precip Events Conditions
12:55 AM 30.0 °F 24.1 °F 26.1 °F 85% 29.88 in 10.0 mi NW 5.8 mph - N/A   Clear
1:55 AM 28.0 °F 20.8 °F 24.1 °F 85% 29.90 in 10.0 mi WNW 6.9 mph - N/A   Clear
2:55 AM 27.0 °F 19.5 °F 24.1 °F 89% 29.93 in 10.0 mi WNW 6.9 mph - N/A   Clear
3:55 AM 23.0 °F 17.0 °F 21.0 °F 92% 29.95 in 10.0 mi WNW 4.6 mph - N/A   Clear
4:55 AM 25.0 °F 20.7 °F 21.9 °F 88% 29.95 in 10.0 mi North 3.5 mph - N/A   Clear
5:55 AM 19.9 °F - 17.1 °F 89% 29.96 in 10.0 mi Calm Calm - N/A   Clear
6:55 AM 21.9 °F 15.7 °F 19.0 °F 89% 30.00 in 10.0 mi West 4.6 mph - N/A   Mostly Cloudy
7:55 AM 27.0 °F 23.0 °F 24.1 °F 89% 30.02 in 10.0 mi SSW 3.5 mph - N/A   Overcast
8:55 AM 28.9 °F 22.8 °F 26.1 °F 89% 30.02 in 10.0 mi SSW 5.8 mph - N/A   Overcast
9:55 AM 32.0 °F - 28.0 °F 85% 30.02 in 10.0 mi Calm Calm - N/A   Overcast
10:55 AM 35.1 °F 28.6 °F 27.0 °F 72% 30.01 in 10.0 mi ESE 8.1 mph - N/A   Scattered Clouds
11:55 AM 37.0 °F 32.4 °F 25.0 °F 62% 30.00 in 10.0 mi SSE 5.8 mph - N/A   Partly Cloudy
12:55 PM 37.4 °F 32.1 °F 24.8 °F 60% 29.96 in 10.0 mi SSW 6.9 mph - N/A   Clear
1:55 PM 37.0 °F 31.0 °F 23.0 °F 57% 29.99 in 10.0 mi SSW 8.1 mph - N/A   Overcast
2:53 PM 35.6 °F 29.2 °F 26.6 °F 70% 29.97 in 2.5 mi SSW 8.1 mph - 0.00 in Snow Light Snow
2:55 PM 35.1 °F 28.6 °F 28.0 °F 76% 30.01 in 2.0 mi SSW 8.1 mph - 0.00 in Snow Light Snow
3:02 PM 33.8 °F 28.6 °F 28.4 °F 81% 29.98 in 1.2 mi SW 5.8 mph - 0.00 in Snow Light Snow
3:14 PM 33.8 °F - 30.2 °F 87% 29.98 in 0.8 mi Calm Calm - 0.01 in Snow Light Snow
3:27 PM 33.8 °F - 30.2 °F 87% 29.99 in 0.5 mi Calm Calm - 0.02 in Fog , Snow Snow
3:35 PM 32.0 °F - 30.2 °F 93% 29.99 in 0.5 mi Calm Calm - 0.03 in Fog , Snow Snow
3:55 PM 32.0 °F - 30.9 °F 96% 30.04 in 0.2 mi Calm Calm - 0.06 in Fog , Snow Snow
4:22 PM 32.0 °F - 30.2 °F 93% 29.98 in 0.5 mi Calm Calm - 0.04 in Fog , Snow Light Snow
4:41 PM 32.0 °F - 30.2 °F 93% 29.98 in 0.8 mi Calm Calm - 0.06 in Snow Light Snow
4:51 PM 32.0 °F - 30.2 °F 93% 29.98 in 0.5 mi Calm Calm - 0.07 in Fog , Snow Snow
4:55 PM 32.0 °F - 30.9 °F 96% 30.02 in 0.5 mi Calm Calm - 0.07 in Fog , Snow Snow
5:21 PM 32.0 °F - 30.2 °F 93% 29.97 in 0.8 mi Calm Calm - 0.03 in Snow Light Snow
5:32 PM 32.0 °F 28.7 °F 30.2 °F 93% 29.97 in 1.0 mi East 3.5 mph - 0.04 in Snow Light Snow
5:51 PM 32.0 °F - 30.2 °F 93% 29.97 in 1.0 mi Calm Calm - 0.06 in Snow Light Snow
5:55 PM 32.0 °F - 30.9 °F 96% 30.02 in 0.8 mi Calm Calm - 0.06 in Snow Light Snow
6:28 PM 32.0 °F - 30.2 °F 93% 29.98 in 1.0 mi Calm Calm - N/A Snow Light Snow
6:55 PM 32.0 °F 28.7 °F 30.9 °F 96% 30.04 in 1.0 mi SSW 3.5 mph - 0.08 in Snow Light Snow
7:21 PM 32.0 °F 26.4 °F 30.2 °F 93% 30.00 in 2.0 mi South 5.8 mph - 0.03 in Snow Light Snow
7:38 PM 32.0 °F 26.4 °F 30.2 °F 93% 30.00 in 3.0 mi SSW 5.8 mph - 0.04 in   Overcast
7:45 PM 32.0 °F 27.5 °F 30.2 °F 93% 30.00 in 4.0 mi South 4.6 mph - 0.04 in   Overcast
7:55 PM 32.0 °F 27.5 °F 30.9 °F 96% 30.04 in 4.0 mi SSW 4.6 mph - 0.05 in Snow Light Snow
8:18 PM 32.0 °F 27.5 °F 30.2 °F 93% 30.01 in 3.0 mi WSW 4.6 mph - 0.01 in Snow Light Snow
8:24 PM 32.0 °F 27.5 °F 30.2 °F 93% 30.01 in 1.8 mi WSW 4.6 mph - 0.02 in Snow Light Snow
8:36 PM 32.0 °F 28.7 °F 30.2 °F 93% 30.02 in 2.5 mi WSW 3.5 mph - 0.02 in Snow Light Snow
8:55 PM 32.0 °F 25.6 °F 30.9 °F 96% 30.06 in 3.0 mi West 6.9 mph - 0.04 in Snow Light Snow
9:00 PM 32.0 °F 26.4 °F 30.2 °F 93% 30.02 in 1.8 mi WSW 5.8 mph - 0.00 in Snow Light Snow
9:19 PM 33.8 °F 25.8 °F 30.2 °F 87% 30.03 in 2.0 mi WNW 10.4 mph 20.7 mph 0.01 in Snow Light Snow
9:21 PM 33.8 °F 25.3 °F 30.2 °F 87% 30.03 in 2.5 mi West 11.5 mph 20.7 mph 0.01 in Snow Light Snow
9:27 PM 33.8 °F 26.4 °F 30.2 °F 87% 30.03 in 6.0 mi WNW 9.2 mph - 0.01 in Snow Light Snow
9:34 PM 33.8 °F 24.8 °F 30.2 °F 87% 30.03 in 7.0 mi WNW 12.7 mph - 0.01 in Snow Light Snow
9:55 PM 33.1 °F 23.9 °F 30.0 °F 89% 30.08 in 3.0 mi WNW 12.7 mph 20.7 mph 0.01 in Snow Light Snow
10:55 PM 33.1 °F 23.9 °F 26.1 °F 75% 30.09 in 10.0 mi NW 12.7 mph 20.7 mph 0.00 in   Mostly Cloudy
11:55 PM 30.9 °F 22.2 °F 25.0 °F 79% 30.11 in 10.0 mi WNW 10.4 mph - N/A   Clear